Regional Weather Roundup
Issued by NWS

Home | Current Version | Previous Version | Text Only | Print | Product List | Glossary On
Versions: 1 2 3 4 5 6 7 8 9 10 11 12 13 14 15 16 17 18 19 20 21 22 23 24 25 26 27 28 29 30 31 32 33 34 35 36 37 38 39 40 41 42 43 44 45 46 47 48 49 50
000
ASUS42 KFFC 192003
RWRGA
WEATHER ROUNDUP FOR GEORGIA
NATIONAL WEATHER SERVICE PEACHTREE CITY GA
400 PM EDT FRI SEP 19 2014

NOTE: "FAIR" INDICATES FEW OR NO CLOUDS BELOW 12,000 FEET WITH NO
SIGNIFICANT WEATHER AND/OR OBSTRUCTIONS TO VISIBILITY.

* = USE WITH CAUTION. THE STATIONS MARKED WITH AN ASTERISK MAY NOT
REPORT WEATHER SUCH AS PRECIPITATION, FOG, OR THUNDER AND ARE NOT
QUALITY CONTROLLED BY NWS.

THE REMARK "TC" DENOTES TEMPERATURE READING IN DEGREES CELSIUS.

GAZ001>058-192100-
NORTH GEORGIA

CITY           SKY/WX    TMP DP  RH WIND       PRES   REMARKS
ATLANTA        MOSUNNY   82  62  50 E12G18    30.06F
ATHENS         MOSUNNY   81  65  58 E9        30.08F
CHAMBLEE       SUNNY     81  62  52 E9        30.07F
PEACHTREE CITY CLOUDY    82  63  52 E8        30.05S
ROME           CLOUDY    77  68  73 CALM      30.04S
WEST ATLANTA   PTSUNNY   83  63  50 NE12G17   30.05F
GAINESVILLE    MOSUNNY   79  62  56 NE12      30.11F
CARTERSVILLE   MOSUNNY   83  64  52 E8        30.05F


CITY           SKY/WX    TMP DP  RH WIND       PRES   REMARKS
DALTON*        MOSUNNY   82  63  51 SE8       30.05S
LAWRENCEVILLE* MOSUNNY   79  61  53 E6        30.07F
KENNESAW*      MOSUNNY   82  64  54 SE9G16    30.08F
$$

GAZ059>098-102>109-192100-
CENTRAL GEORGIA

CITY           SKY/WX    TMP DP  RH WIND       PRES   REMARKS
AUGUSTA-BUSH   PTSUNNY   83  68  60 E10       30.05F
AUGUSTA-DANIEL MOSUNNY   82  67  60 NE10      30.07F
COLUMBUS       MOSUNNY   87  62  43 E10       29.99F
MACON          SUNNY     84  66  54 E8        30.01F
ROBINS AFB     SUNNY     85  68  56 VRB5      30.01F


CITY           SKY/WX    TMP DP  RH WIND       PRES   REMARKS
LAGRANGE*      MOSUNNY   86  68  54 E3        30.02S
SYLVANIA*      PTSUNNY   87  74  65 E14       30.03S HX  95
MILLEDGEVILLE* MOSUNNY   84  68  58 E7        30.04S
$$

GAZ099>101-110>166-192100-
SOUTH GEORGIA

CITY           SKY/WX    TMP DP  RH WIND       PRES   REMARKS
SAVANNAH       CLOUDY    83  69  62 E12       30.02F
VALDOSTA       CLOUDY    84  70  62 SE5       29.97F
ALMA           CLOUDY    84  72  67 CALM      29.98F
ST SIMONS      CLOUDY    83  70  64 E12       29.98F
FT STEWART     CLOUDY    79  70  73 E14       30.00F
ALBANY         HVY RAIN  72  66  83 NE15G29   30.05R FOG
HUNTER AFB     CLOUDY    81  72  75 NE10      30.00F
MOODY AFB      CLOUDY    81  67  62 SE6       29.98F
BRUNSWICK      CLOUDY    84  70  61 E13       29.99F


CITY           SKY/WX    TMP DP  RH WIND       PRES   REMARKS
BAINBRIDGE*    CLOUDY    88  73  62 E6        29.96F HX  96
MOULTRIE*      CLOUDY    84  72  65 SE7       29.98F
VIDALIA*       PTSUNNY   86  70  58 E8        30.01F HX  90
WAYCROSS*      CLOUDY    88  74  63 SE8       29.98F HX  96
DOUGLAS*       CLOUDY    86  64  48 E5        30.00F
$$



USA.gov is the U.S. government's official web portal to all federal, state and local government web resources and services.